Weather History for Billings, MT

Change the Weather History Date:

Monday, October 1, 2012

  Actual Average Record
Temperature  
Mean Temperature 60 °F 54 °F  
Max Temperature 76 °F 65 °F 91 °F (2011)
Min Temperature 44 °F 42 °F 23 °F (1950)
Degree Days  
Heating Degree Days 5 12  
Month to date heating degree days 5 12  
Since 1 July heating degree days 70 241  
Cooling Degree Days 0 0  
Month to date cooling degree days 0 0  
Year to date cooling degree days 955 633  
Growing Degree Days 10 (Base 50)    
Moisture  
Dew Point 38 °F    
Average Humidity 47    
Maximum Humidity 85    
Minimum Humidity 14    
Precipitation  
Precipitation 0.00 in 0.05 in 1.67 in (1971)
Month to date precipitation 0.00 0.05  
Year to date precipitation 5.08 11.40  
Snow  
Snow 0.00 in 0.10 in 1.50 in (1971)
Month to date snowfall 0.0 0.1  
Since 1 July snowfall 0.0 1.2  
Since 1 September snowfall 0.0 1.2  
Snow Depth 0.00 in    
Sea Level Pressure  
Sea Level Pressure 30.10 in    
Wind  
Wind Speed 10 mph (SW)    
Max Wind Speed 20 mph    
Max Gust Speed 25 mph    
Visibility 10 miles    
Events      
T = Trace of Precipitation, MM = Missing Value Source: NWS Daily Summary

Daily Weather History Graph

Daily Weather History Graph

Search for Another Location

Airport:

Trip Planner

Search our weather history database for the weather conditions in past years. The results will help you decide how hot, cold, wet, or windy it might be!

Date:

Astronomy

Oct. 01, 2012 Rise Set
Actual Time 7:13 AM MDT 6:53 PM MDT
Civil Twilight 6:43 AM MDT 7:22 PM MDT
Nautical Twilight 6:08 AM MDT 7:57 PM MDT
Astronomical Twilight 5:33 AM MDT 8:32 PM MDT
Moon 7:23 PM MDT (10/1) 8:53 AM MDT (10/1)
Length of Visible Light 12h 39m
Length of Day
11h 40m
Full, 97% of the Moon is Illuminated
Oct 1
Full
Oct 8
Last Quarter
Oct 15
New
Oct 21
First Quarter
Oct 29
Full

Hourly Weather History & Observations

Time (MDT) Temp. Windchill Dew Point Humidity Pressure Visibility Wind Dir Wind Speed Gust Speed Precip Events Conditions
12:53 AM 52.0 °F - 39.9 °F 63% 30.29 in 10.0 mi NNE 5.8 mph - N/A   Clear
1:53 AM 51.1 °F - 41.0 °F 68% 30.30 in 10.0 mi NNE 4.6 mph - N/A   Mostly Cloudy
2:53 AM 50.0 °F - 41.0 °F 71% 30.28 in 10.0 mi North 4.6 mph - N/A   Mostly Cloudy
3:53 AM 51.1 °F - 41.0 °F 68% 30.27 in 10.0 mi Calm Calm - N/A   Partly Cloudy
4:53 AM 46.9 °F - 39.9 °F 77% 30.27 in 10.0 mi Calm Calm - N/A   Clear
5:53 AM 45.0 °F - 39.0 °F 80% 30.28 in 10.0 mi Calm Calm - N/A   Clear
6:53 AM 46.0 °F 43.9 °F 39.9 °F 79% 30.28 in 10.0 mi SSW 4.6 mph - N/A   Clear
7:53 AM 44.1 °F 40.1 °F 39.9 °F 85% 30.30 in 10.0 mi SSW 6.9 mph - N/A   Clear
8:53 AM 46.9 °F - 39.0 °F 74% 30.27 in 10.0 mi SW 9.2 mph - N/A   Clear
9:53 AM 51.1 °F - 39.9 °F 66% 30.25 in 10.0 mi SSW 11.5 mph - N/A   Clear
10:53 AM 57.0 °F - 41.0 °F 55% 30.22 in 10.0 mi SW 10.4 mph - N/A   Clear
11:53 AM 62.1 °F - 41.0 °F 46% 30.17 in 10.0 mi SSW 12.7 mph - N/A   Clear
12:53 PM 68.0 °F - 42.1 °F 39% 30.11 in 10.0 mi SSW 5.8 mph - N/A   Clear
1:53 PM 73.9 °F - 36.0 °F 25% 30.06 in 10.0 mi SW 12.7 mph 19.6 mph N/A   Clear
2:53 PM 75.0 °F - 36.0 °F 24% 30.01 in 10.0 mi WSW 16.1 mph 23.0 mph N/A   Clear
3:53 PM 75.0 °F - 35.1 °F 23% 29.97 in 10.0 mi SW 15.0 mph 24.2 mph N/A   Partly Cloudy
4:53 PM 75.9 °F - 37.0 °F 24% 29.95 in 10.0 mi SW 13.8 mph - N/A   Clear
5:53 PM 75.0 °F - 37.0 °F 25% 29.92 in 10.0 mi SW 11.5 mph 18.4 mph N/A   Clear
6:53 PM 71.1 °F - 37.9 °F 30% 29.91 in 10.0 mi WSW 11.5 mph - N/A   Partly Cloudy
7:53 PM 70.0 °F - 36.0 °F 29% 29.92 in 10.0 mi WSW 15.0 mph - N/A   Partly Cloudy
8:53 PM 68.0 °F - 35.1 °F 30% 29.89 in 10.0 mi WSW 16.1 mph - N/A   Clear
9:53 PM 66.0 °F - 35.1 °F 32% 29.87 in 10.0 mi WSW 15.0 mph - N/A   Clear
11:53 PM 66.0 °F - 35.1 °F 32% 29.79 in 10.0 mi WSW 17.3 mph - N/A   Clear